Location: Clifton Park
(41.4873°N, 81.8024°W)
Time: 09:44:31
(UTC+00:00)

NOSS 2-1 (E) - Pass Details

Date: 21 January 2020
Orbit: 456 x 1748 km, 63.3° (Epoch: 20 January)

Event Time Altitude Azimuth Distance (km) Brightness Sun altitude
Rises 00:27:37 0° 326° (NW) 3,217 7.6 -22.2°
Reaches altitude 10° 00:29:43 10° 327° (NNW) 2,438 6.9 -22.6°
Maximum altitude 00:35:27 79° 55° (NE) 1,063 4.5 -23.6°
Enters shadow 00:40:35 23° 140° (SE) 2,352 6.2 -24.6°
